Location: Haliburton Scout Reserve
(45.0900°N, 78.3200°W)
Time: 01:52:45
(UTC-04:00)

ESTCUBE 1 - Pass Details

Date: 23 May 2022
Orbit: 644 x 659 km, 97.9° (Epoch: 27 June)

Event Time Altitude Azimuth Distance (km) Brightness Sun altitude
Exits shadow 22:38:57 23° 115° (ESE) 1,373 ? -15.7°
Maximum altitude 22:40:57 35° 69° (ENE) 1,062 ? -15.9°
Drops below altitude 10° 22:45:01 10° 4° (N) 2,067 ? -16.3°
Sets 22:47:23 0° 356° (N) 2,980 ? -16.6°
